Weather History for PAIL - July, 2013

Change the Weather History Date:

Monday, July 15, 2013

  Actual Average Record
Temperature  
Mean Temperature 58 °F -  
Max Temperature 64 °F 60 °F 75 °F (1956)
Min Temperature 53 °F 48 °F 38 °F (1947)
Degree Days  
Heating Degree Days 6    
Growing Degree Days 8 (Base 50)    
Moisture  
Dew Point 51 °F    
Average Humidity 78    
Maximum Humidity 89    
Minimum Humidity 58    
Precipitation  
Precipitation 0.00 in - - ()
Sea Level Pressure  
Sea Level Pressure 30.31 in    
Wind  
Wind Speed 4 mph (SSE)    
Max Wind Speed 9 mph    
Max Gust Speed -    
Visibility 10 miles    
Events      
Averages and records for this station are not official NWS values.
T = Trace of Precipitation, MM = Missing Value Source: NWS Daily Summary

Daily Weather History Graph

Daily Weather History Graph

Search for Another Location

Airport or City:

Trip Planner

Search our weather history database for the weather conditions in past years. The results will help you decide how hot, cold, wet, or windy it might be!

Date:

Astronomy

Jul. 15, 2013 Rise Set
Actual Time 5:26 AM AKDT 11:23 PM AKDT
Civil Twilight 4:10 AM AKDT 12:37 AM AKDT
Nautical Twilight Sun does not rise Sun does not rise
Astronomical Twilight Sun does not rise Sun does not rise
Moon 3:13 PM AKDT (7/15) 12:37 AM AKDT (7/15)
Length of Visible Light 20h 27m
Length of Day
17h 56m
Waxing Crescent, 47% of the Moon is Illuminated
Jul 15
Waxing Crescent
Jul 15
First Quarter
Jul 22
Full
Jul 29
Last Quarter
Aug 6
New

Hourly Weather History & Observations

Time (AKDT) Temp. Dew Point Humidity Pressure Visibility Wind Dir Wind Speed Gust Speed Precip Events Conditions
12:53 AM 55.0 °F 51.1 °F 86% 30.32 in 10.0 mi SE 6.9 mph - N/A   Overcast
1:53 AM 54.0 °F 50.0 °F 86% 30.33 in 10.0 mi SW 3.5 mph - N/A   Overcast
2:53 AM 54.0 °F 50.0 °F 86% 30.33 in 10.0 mi Calm Calm - N/A   Overcast
3:53 AM 55.0 °F 48.9 °F 80% 30.33 in 10.0 mi Calm Calm - N/A   Overcast
4:53 AM 54.0 °F 50.0 °F 86% 30.33 in 10.0 mi Calm Calm - N/A   Overcast
5:53 AM 53.1 °F 50.0 °F 89% 30.33 in 10.0 mi Calm Calm - N/A   Overcast
6:53 AM 55.0 °F 50.0 °F 83% 30.33 in 10.0 mi Calm Calm - N/A   Overcast
7:53 AM 55.9 °F 50.0 °F 80% 30.33 in 10.0 mi Calm Calm - N/A   Overcast
8:39 AM 55.4 °F 50.0 °F 82% 30.32 in 10.0 mi ESE 3.5 mph - N/A   Overcast
8:53 AM 55.9 °F 51.1 °F 84% 30.33 in 10.0 mi East 3.5 mph - N/A   Mostly Cloudy
9:53 AM 57.0 °F 52.0 °F 83% 30.33 in 10.0 mi SE 6.9 mph - N/A   Partly Cloudy
10:53 AM 57.9 °F 52.0 °F 81% 30.32 in 10.0 mi SSE 6.9 mph - N/A   Overcast
11:53 AM 60.1 °F 52.0 °F 75% 30.32 in 10.0 mi Variable 3.5 mph - N/A   Mostly Cloudy
12:53 PM 61.0 °F 51.1 °F 70% 30.31 in 10.0 mi Variable 6.9 mph - N/A   Overcast
1:53 PM 63.0 °F 52.0 °F 67% 30.31 in 10.0 mi SSE 8.1 mph - N/A   Partly Cloudy
2:53 PM 64.0 °F 52.0 °F 65% 30.30 in 10.0 mi South 5.8 mph - N/A   Mostly Cloudy
3:53 PM 63.0 °F 52.0 °F 67% 30.29 in 10.0 mi Variable 4.6 mph - N/A   Overcast
4:53 PM 62.1 °F 52.0 °F 70% 30.29 in 10.0 mi South 3.5 mph - N/A   Overcast
5:53 PM 63.0 °F 53.1 °F 70% 30.28 in 10.0 mi South 3.5 mph - N/A   Overcast
6:53 PM 61.0 °F 52.0 °F 72% 30.28 in 10.0 mi South 5.8 mph - N/A   Overcast
7:53 PM 60.1 °F 52.0 °F 75% 30.29 in 10.0 mi South 6.9 mph - N/A   Overcast
8:53 PM 60.1 °F 52.0 °F 75% 30.28 in 10.0 mi Calm Calm - N/A   Overcast
9:53 PM 59.0 °F 54.0 °F 83% 30.28 in 10.0 mi Calm Calm - N/A   Overcast
10:53 PM 57.0 °F 54.0 °F 89% 30.29 in 10.0 mi Calm Calm - N/A   Overcast
11:53 PM 55.9 °F 52.0 °F 87% 30.30 in 10.0 mi WSW 5.8 mph - N/A   Overcast